When you browse on this site, cookies collect data to enhance your experience and personalize the content and advertising you see.
Visit our Privacy Policy to learn more. By continuing to use the site, you agree to this use of cookies and data.
  • en France
  • Liste des pays
  • À 7 jours
  • Température de l'eau
  • Carte météo
  • Widgets météo
  • user-avatar
    Se connecter

    Météo par heure à Wirowek

    Ce jour, 19 Février, Mercredi

    Heure Température Précipitation Vent Pression Humidité
    00:00 +3°C° 0 mm 4 m/s 750 mmHg 73%
    01:00 +1°C° 0 mm 4 m/s 750 mmHg 73%
    02:00 +1°C° 0 mm 4 m/s 750 mmHg 75%
    03:00 +1°C° 0 mm 4 m/s 749 mmHg 78%
    04:00 +1°C° 0 mm 4 m/s 749 mmHg 81%
    05:00 0°C° 0 mm 4 m/s 749 mmHg 82%
    06:00 0°C° 0 mm 4 m/s 748 mmHg 84%
    07:00 0°C° 0 mm 4 m/s 748 mmHg 85%
    08:00 +1°C° 0 mm 4 m/s 748 mmHg 80%
    09:00 +2°C° 0 mm 5 m/s 748 mmHg 75%
    10:00 +3°C° 0 mm 5 m/s 748 mmHg 70%
    11:00 +5°C° 0 mm 5 m/s 747 mmHg 66%
    12:00 +6°C° 0 mm 5 m/s 746 mmHg 62%
    13:00 +6°C° 0 mm 5 m/s 746 mmHg 58%
    14:00 +6°C° 0 mm 5 m/s 745 mmHg 59%
    15:00 +6°C° 0 mm 4 m/s 745 mmHg 59%
    16:00 +6°C° 0 mm 4 m/s 745 mmHg 60%
    17:00 +5°C° 0.1 mm 4 m/s 745 mmHg 69%
    18:00 +5°C° 0.1 mm 4 m/s 745 mmHg 77%
    19:00 +4°C° 0.1 mm 4 m/s 745 mmHg 86%
    20:00 +3°C° 0.4 mm 5 m/s 745 mmHg 86%
    21:00 +2°C° 0.4 mm 6 m/s 745 mmHg 87%
    22:00 +2°C° 0.4 mm 6 m/s 746 mmHg 87%
    23:00 +2°C° 0 mm 6 m/s 746 mmHg 84%

    Demain, 20 Février, Jeudi

    Heure Température Précipitation Vent Pression Humidité
    00:00 +2°C° 0 mm 6 m/s 746 mmHg 81%
    01:00 +2°C° 0 mm 5 m/s 747 mmHg 78%
    02:00 +1°C° 0 mm 5 m/s 747 mmHg 80%
    03:00 +1°C° 0 mm 5 m/s 747 mmHg 82%
    04:00 +1°C° 0 mm 4 m/s 748 mmHg 85%
    05:00 +1°C° 0.5 mm 5 m/s 748 mmHg 87%
    06:00 0°C° 0.5 mm 5 m/s 748 mmHg 89%
    07:00 0°C° 0.5 mm 5 m/s 749 mmHg 91%
    08:00 +1°C° 0.3 mm 5 m/s 749 mmHg 88%
    09:00 +1°C° 0.3 mm 4 m/s 750 mmHg 86%
    10:00 +3°C° 0.3 mm 4 m/s 750 mmHg 83%
    11:00 +3°C° 0.1 mm 4 m/s 750 mmHg 78%
    12:00 +3°C° 0.1 mm 3 m/s 751 mmHg 74%
    13:00 +4°C° 0.1 mm 3 m/s 751 mmHg 69%
    14:00 +4°C° 0 mm 3 m/s 751 mmHg 68%
    15:00 +5°C° 0 mm 2 m/s 751 mmHg 67%
    16:00 +5°C° 0 mm 2 m/s 750 mmHg 66%
    17:00 +4°C° 0 mm 2 m/s 751 mmHg 70%
    18:00 +3°C° 0 mm 2 m/s 751 mmHg 74%
    19:00 +3°C° 0 mm 2 m/s 751 mmHg 77%
    20:00 +2°C° 0 mm 2 m/s 750 mmHg 80%
    21:00 +1°C° 0 mm 3 m/s 750 mmHg 82%
    22:00 +1°C° 0 mm 3 m/s 750 mmHg 85%
    23:00 -1°C° 0 mm 4 m/s 749 mmHg 83%

    Après-demain, 21 Février, Vendredi

    Heure Température Précipitation Vent Pression Humidité
    00:00 -1°C° 0 mm 4 m/s 749 mmHg 81%
    01:00 -1°C° 0 mm 5 m/s 749 mmHg 79%
    02:00 -1°C° 0 mm 5 m/s 748 mmHg 80%
    03:00 -2°C° 0 mm 6 m/s 747 mmHg 82%
    04:00 -2°C° 0 mm 6 m/s 747 mmHg 83%
    05:00 -1°C° 0.2 mm 6 m/s 746 mmHg 86%
    06:00 -1°C° 0.2 mm 7 m/s 746 mmHg 89%
    07:00 -1°C° 0.2 mm 7 m/s 745 mmHg 92%
    14:00 +2°C° 0.1 mm 8 m/s 750 mmHg 64%
    15:00 +2°C° 0.1 mm 8 m/s 750 mmHg 66%
    16:00 +2°C° 0.1 mm 7 m/s 751 mmHg 69%
    17:00 +2°C° 0 mm 6 m/s 752 mmHg 71%
    18:00 +1°C° 0 mm 6 m/s 752 mmHg 73%
    19:00 +1°C° 0 mm 5 m/s 753 mmHg 75%
    20:00 +1°C° 0 mm 5 m/s 754 mmHg 78%
    21:00 0°C° 0 mm 5 m/s 754 mmHg 80%
    22:00 0°C° 0 mm 4 m/s 754 mmHg 82%
    23:00 0°C° 0 mm 4 m/s 754 mmHg 83%

    22 Février, Samedi

    Heure Température Précipitation Vent Pression Humidité
    00:00 -1°C° 0 mm 4 m/s 754 mmHg 84%
    01:00 -1°C° 0 mm 4 m/s 755 mmHg 85%
    02:00 -1°C° 0 mm 4 m/s 754 mmHg 85%
    03:00 -1°C° 0 mm 4 m/s 754 mmHg 86%
    04:00 -1°C° 0 mm 4 m/s 754 mmHg 86%
    05:00 -1°C° 0 mm 4 m/s 754 mmHg 84%
    06:00 -1°C° 0 mm 4 m/s 754 mmHg 82%
    07:00 -1°C° 0 mm 5 m/s 754 mmHg 80%
    08:00 0°C° 0 mm 5 m/s 753 mmHg 75%
    09:00 +1°C° 0 mm 6 m/s 753 mmHg 69%
    10:00 +2°C° 0 mm 7 m/s 752 mmHg 63%
    11:00 +3°C° 0 mm 7 m/s 752 mmHg 61%
    12:00 +4°C° 0 mm 7 m/s 751 mmHg 59%
    13:00 +4°C° 0 mm 8 m/s 751 mmHg 56%
    14:00 +5°C° 0 mm 7 m/s 750 mmHg 56%
    15:00 +5°C° 0 mm 7 m/s 749 mmHg 55%
    16:00 +5°C° 0 mm 6 m/s 748 mmHg 55%
    17:00 +5°C° 0 mm 7 m/s 748 mmHg 54%
    18:00 +5°C° 0 mm 8 m/s 748 mmHg 54%
    19:00 +5°C° 0 mm 8 m/s 748 mmHg 54%
    20:00 +6°C° 0 mm 8 m/s 747 mmHg 55%
    21:00 +6°C° 0 mm 8 m/s 747 mmHg 55%
    22:00 +6°C° 0 mm 8 m/s 747 mmHg 56%
    23:00 +6°C° 0 mm 8 m/s 747 mmHg 59%

    23 Février, Dimanche

    Heure Température Précipitation Vent Pression Humidité
    00:00 +6°C° 0 mm 8 m/s 747 mmHg 62%
    01:00 +5°C° 0 mm 8 m/s 747 mmHg 65%
    02:00 +5°C° 0.2 mm 8 m/s 746 mmHg 71%
    03:00 +5°C° 0.2 mm 8 m/s 746 mmHg 76%
    04:00 +5°C° 0.2 mm 7 m/s 746 mmHg 82%
    05:00 +4°C° 0.6 mm 8 m/s 746 mmHg 81%
    06:00 +4°C° 0.6 mm 8 m/s 746 mmHg 81%
    07:00 +4°C° 0.6 mm 8 m/s 746 mmHg 81%
    08:00 +4°C° 0 mm 8 m/s 746 mmHg 74%
    09:00 +5°C° 0 mm 9 m/s 746 mmHg 67%
    10:00 +6°C° 0 mm 9 m/s 746 mmHg 60%
    11:00 +5°C° 0.1 mm 8 m/s 746 mmHg 63%
    12:00 +5°C° 0.1 mm 8 m/s 746 mmHg 66%
    13:00 +5°C° 0.1 mm 7 m/s 746 mmHg 69%
    14:00 +5°C° 0.2 mm 7 m/s 745 mmHg 74%
    15:00 +4°C° 0.2 mm 6 m/s 744 mmHg 79%
    16:00 +4°C° 0.2 mm 6 m/s 744 mmHg 84%
    17:00 +5°C° 0.3 mm 5 m/s 742 mmHg 85%
    18:00 +3°C° 0.3 mm 5 m/s 741 mmHg 87%
    19:00 +4°C° 0.3 mm 4 m/s 740 mmHg 88%
    20:00 +5°C° 1.4 mm 5 m/s 739 mmHg 89%
    21:00 +5°C° 1.4 mm 6 m/s 737 mmHg 90%
    22:00 +6°C° 1.4 mm 7 m/s 735 mmHg 91%
    23:00 +6°C° 1.8 mm 8 m/s 735 mmHg 86%

    24 Février, Lundi

    Heure Température Précipitation Vent Pression Humidité
    00:00 +6°C° 1.8 mm 9 m/s 734 mmHg 82%
    01:00 +6°C° 1.8 mm 11 m/s 733 mmHg 77%
    02:00 +3°C° 0.6 mm 10 m/s 735 mmHg 83%
    03:00 +1°C° 0.6 mm 9 m/s 736 mmHg 88%
    04:00 -1°C° 0.6 mm 8 m/s 738 mmHg 94%
    05:00 -1°C° 0.4 mm 9 m/s 740 mmHg 87%
    06:00 -2°C° 0.4 mm 10 m/s 741 mmHg 81%
    07:00 -1°C° 0.4 mm 11 m/s 743 mmHg 74%
    08:00 -1°C° 0.1 mm 11 m/s 744 mmHg 76%
    09:00 -1°C° 0.1 mm 12 m/s 745 mmHg 79%
    10:00 -1°C° 0.1 mm 12 m/s 746 mmHg 82%
    11:00 -1°C° 0 mm 12 m/s 746 mmHg 76%
    12:00 +1°C° 0 mm 11 m/s 747 mmHg 70%
    13:00 +2°C° 0 mm 11 m/s 748 mmHg 64%
    14:00 +2°C° 0 mm 10 m/s 749 mmHg 62%
    15:00 +2°C° 0 mm 9 m/s 749 mmHg 60%
    16:00 +4°C° 0 mm 8 m/s 750 mmHg 58%
    17:00 +3°C° 0 mm 7 m/s 750 mmHg 61%
    18:00 +2°C° 0 mm 7 m/s 751 mmHg 64%
    19:00 +2°C° 0 mm 6 m/s 751 mmHg 67%
    20:00 +1°C° 0 mm 5 m/s 752 mmHg 71%
    21:00 +1°C° 0 mm 5 m/s 752 mmHg 75%
    22:00 0°C° 0 mm 4 m/s 752 mmHg 78%
    23:00 0°C° 0 mm 4 m/s 752 mmHg 81%
    Voir plus